SCP
0 0 0 0 0 0 0 0 0 0 0 0 0 0 1 1 1 1 1 1 2 2 3 3 3 3 2 2 2 2 2 2 2 2 2 2 2 2 2 2 2 2 1 1
0 0 0 0 0 0 0 0 0 0 0 0 0 0 1 1 1 1 1 1 1 2 3 3 3 3 3 2 2 2 2 2 2 2 2 2 2 2 2 2 2 1 1 1
0 0 0 0 0 0 0 0 0 0 0 0 0 0 1 1 1 1 1 1 1 1 2 3 3 3 3 2 2 2 1 1 2 2 3 3 2 2 2 2 1 1 1 1
0 0 0 0 0 0 0 0 0 0 0 0 0 0 1 1 1 1 1 1 0 1 1 2 2 2 2 2 2 2 1 2 3 3 3 3 2 2 2 1 1 1 1 1
0 0 0 0 0 0 0 0 0 0 0 0 0 0 0 0 0 1 1 1 1 1 1 1 1 1 1 2 2 2 2 3 3 3 3 3 2 2 2 1 1 1 1 1
0 0 0 0 0 0 0 0 0 0 0 0 0 0 0 0 0 1 1 1 1 1 1 1 1 1 1 1 2 2 2 3 3 3 3 3 2 2 1 1 1 1 1 0
0 0 0 0 0 0 0 0 0 0 0 0 0 0 0 0 1 1 1 1 1 1 1 1 1 1 1 1 2 2 3 3 3 3 3 3 2 1 1 0 1 1 1 0
0 0 0 0 0 0 0 0 0 0 0 0 0 0 0 0 1 1 1 1 1 1 1 0 1 1 1 1 2 3 3 3 3 3 3 3 2 1 1 0 1 1 1 0
0 0 0 0 0 0 0 0 0 0 0 0 0 0 0 1 1 1 1 1 1 1 1 1 1 1 1 1 2 3 4 4 4 3 2 2 1 1 1 1 1 1 1 0
0 0 0 0 0 0 0 0 0 0 0 0 0 0 0 1 1 1 1 1 1 1 1 1 1 1 1 1 2 3 4 4 3 2 1 1 1 1 1 1 1 1 0 0
0 0 0 0 0 0 0 0 0 0 0 0 0 0 1 1 2 1 1 1 1 1 1 1 1 1 1 2 2 2 2 2 1 1 1 0 0 1 1 1 1 1 0 0
0 0 0 0 0 0 0 0 0 0 0 0 0 0 1 1 2 1 1 1 1 1 1 1 1 1 1 2 2 2 1 1 0 0 0 0 1 1 1 0 0 0 0 0
0 0 0 0 0 0 0 0 0 0 0 0 0 0 1 1 1 1 1 1 1 1 1 0 0 1 1 1 1 1 0 0 0 0 0 0 1 1 1 0 0 0 0 0
0 0 0 0 0 0 0 0 0 0 0 0 0 0 1 1 1 1 1 0 0 0 0 0 0 0 0 0 0 0 0 0 0 0 0 0 1 1 1 0 0 0 0 0
0 0 0 0 0 0 0 0 0 0 0 0 0 1 1 1 1 1 1 0 0 0 0 0 0 0 0 0 0 0 0 0 0 0 0 0 1 1 1 1 0 0 0 0
0 0 0 0 0 0 0 0 0 0 0 0 0 1 1 1 1 1 0 0 0 0 0 1 1 0 0 0 0 0 0 0 0 0 0 1 1 1 1 1 1 0 0 0
0 0 0 0 0 0 0 0 0 0 0 0 1 1 1 1 1 0 0 0 0 0 0 0 0 0 0 0 0 0 0 0 0 0 0 1 1 2 2 1 1 0 0 0
0 0 0 0 0 0 0 0 0 0 0 0 1 1 0 0 0 0 0 0 0 0 0 0 0 0 0 0 0 0 0 0 0 0 0 1 1 2 2 1 1 0 0 0
0 0 0 0 0 0 0 0 0 0 0 0 0 0 0 0 0 0 0 0 0 0 0 0 0 0 0 0 0 0 0 0 0 0 1 1 1 2 2 1 1 0 0 0
0 0 0 0 0 0 0 0 0 0 0 0 0 0 0 0 0 0 0 0 0 0 0 0 0 0 0 0 0 0 0 0 0 0 1 1 2 2 2 1 1 0 0 0
0 0 0 0 0 0 0 0 0 0 0 0 0 0 0 0 0 0 0 0 0 0 0 0 0 0 0 0 0 0 0 0 0 1 1 2 2 2 2 1 1 0 0 0
0 0 0 0 0 0 0 0 0 0 0 0 0 0 0 0 0 0 0 0 0 0 0 0 0 0 0 0 0 1 1 1 1 1 2 2 2 2 1 1 1 0 0 0
0 0 0 0 0 0 0 0 0 0 0 0 0 0 0 0 0 0 0 0 0 0 0 0 0 0 0 0 0 1 1 1 2 2 2 2 2 1 1 1 0 0 0 0
0 0 0 0 0 0 0 0 0 0 0 0 0 0 0 0 0 0 0 0 0 0 0 0 0 0 0 0 0 0 0 1 1 1 2 1 1 1 1 0 0 0 0 0
0 0 0 0 0 0 0 0 0 0 0 0 0 0 0 0 0 0 0 0 0 0 0 0 0 0 0 0 0 0 0 0 0 1 1 1 1 0 0 0 0 0 0 0
0 0 0 0 0 0 0 0 0 0 0 0 0 0 0 0 0 0 0 0 0 0 0 0 0 0 0 0 0 0 0 0 0 0 0 0 0 0 0 0 0 0 0 0
0 0 0 0 0 0 0 0 0 0 0 0 0 0 0 0 0 0 0 0 0 0 0 0 0 0 0 0 0 0 0 0 0 0 0 0 0 0 0 0 0 0 0 0
Wind_Speed
9 9 8 8 8 8 8 8 9 7 6 3 1 1 2 1 2 3 3 2 2 2 1 1 1 2 2 2 2 2 3 3 2 2 2 1 1 1 1 1 1 1 1 1
9 9 8 10 10 10 10 9 10 9 7 2 2 0 1 1 2 2 2 1 1 1 2 1 1 2 2 2 2 2 3 3 3 3 2 2 2 2 2 1 1 1 1 1
8 8 9 10 8 9 9 8 8 8 5 1 2 2 1 1 2 1 1 2 2 1 1 1 2 2 2 2 2 2 2 2 2 2 2 2 2 2 2 2 2 2 2 2
6 7 9 3 3 3 4 6 4 4 3 2 2 2 1 1 2 1 1 1 0 0 0 0 1 1 0 1 2 2 2 2 2 2 2 2 2 2 2 2 2 2 2 2
5 6 7 5 2 2 4 5 4 4 3 2 2 2 1 2 3 2 1 1 1 1 1 1 1 1 0 1 1 1 1 1 1 2 2 2 3 3 2 2 2 2 2 2
6 6 6 1 4 4 4 3 4 5 4 3 2 2 1 3 3 3 2 2 2 1 1 1 1 1 0 1 1 0 1 1 1 1 2 3 3 3 2 2 2 2 2 2
8 8 5 2 3 3 2 2 5 5 5 4 3 3 2 3 2 2 2 2 2 1 1 1 1 0 1 1 0 0 1 1 1 1 2 3 3 2 3 2 2 2 2 2
5 7 4 2 2 2 3 4 4 5 5 5 4 3 2 2 2 1 1 1 1 0 1 0 0 0 1 1 0 1 1 0 1 1 2 2 3 2 2 3 2 2 2 1
3 2 1 2 2 3 4 5 4 4 4 4 3 3 2 2 2 2 1 0 0 0 1 0 0 1 1 1 1 1 1 0 0 1 2 2 3 3 2 2 2 2 2 1
5 3 2 1 2 3 4 5 5 4 4 4 4 3 3 3 3 2 1 1 0 0 1 1 1 1 1 1 1 1 1 1 1 1 1 1 2 2 2 2 2 2 2 2
8 6 4 2 2 3 3 4 5 5 4 4 3 3 3 3 3 2 2 1 1 1 2 2 1 2 1 1 1 1 1 1 1 1 1 1 1 1 2 2 3 3 2 2
5 5 4 4 3 3 3 3 4 4 4 4 3 4 3 3 2 2 2 1 1 2 2 2 2 2 1 1 1 1 1 1 1 1 1 1 1 1 1 2 2 3 3 3
5 5 5 5 4 4 4 4 4 4 4 3 3 3 3 3 2 2 2 2 2 2 2 2 2 2 1 1 1 1 1 1 1 1 1 1 2 2 2 1 1 2 3 3
3 4 5 4 4 4 4 4 4 4 4 3 3 3 3 3 3 2 2 2 2 2 2 2 2 2 1 1 1 1 1 1 1 1 1 1 2 2 2 3 2 1 2 3
4 5 4 3 3 3 3 3 3 3 3 3 3 3 3 3 3 3 3 2 2 2 2 2 1 1 1 1 2 1 1 1 1 1 1 1 2 2 2 2 2 2 1 1
4 4 3 4 3 4 3 3 3 3 3 3 3 3 3 3 3 3 2 2 2 2 2 2 2 1 1 1 1 1 1 2 1 1 1 1 2 2 2 2 2 2 2 2
4 4 4 3 4 4 3 2 3 3 3 3 3 3 3 3 3 3 3 3 2 2 2 2 1 1 1 1 1 1 1 2 3 2 2 2 2 2 2 2 2 2 2 2
3 3 3 4 3 3 3 2 2 2 3 3 3 3 3 3 3 3 4 4 3 3 2 2 2 1 0 0 0 1 1 1 1 1 1 1 1 2 2 2 2 2 2 2
2 2 2 2 3 3 2 2 2 2 2 2 2 3 3 3 3 3 4 3 3 3 3 3 4 3 1 1 0 1 1 1 0 0 1 1 1 1 2 2 2 2 2 2
1 1 1 2 2 2 2 2 2 2 2 2 2 3 3 3 3 3 3 2 2 2 2 3 3 2 1 1 1 0 1 1 1 1 1 1 1 1 1 2 2 2 2 2
2 1 2 2 2 2 2 2 2 2 2 2 2 2 3 2 3 3 2 1 2 3 3 4 2 2 1 2 1 1 1 1 1 1 1 1 1 1 1 1 2 2 2 2
2 2 2 3 3 2 2 2 2 3 2 2 2 2 2 2 2 2 2 1 1 3 2 2 2 3 3 2 1 1 1 1 1 1 0 1 1 1 1 1 1 1 1 1
2 2 3 3 3 3 3 2 2 2 2 2 2 2 2 2 1 1 2 1 1 3 2 1 3 5 5 1 1 1 0 0 0 0 0 0 0 0 0 1 1 1 1 1
2 3 3 3 3 3 3 2 2 1 1 1 1 1 1 1 1 1 1 1 2 2 1 2 4 4 3 1 1 1 1 0 0 0 0 0 0 0 0 0 1 1 1 1
2 3 3 2 2 2 2 2 1 1 1 1 1 1 1 0 0 1 1 1 1 2 1 2 3 3 1 1 1 1 1 1 1 1 0 0 0 0 0 0 0 1 1 1
2 2 2 2 2 1 1 1 1 0 1 1 1 0 1 1 1 1 1 1 1 2 1 1 1 1 1 1 1 1 1 1 1 1 1 0 0 0 0 0 1 1 1 1
1 1 1 1 1 0 0 1 1 1 1 0 1 1 1 1 1 1 2 1 1 1 1 1 0 0 1 1 1 1 1 1 1 1 1 1 1 1 1 1 1 1 1 1
Wind_Direction
290 290 290 284 271 260 255 259 267 281 280 275 272 126 118 121 104 107 105 98 108 125 121 150 152 154 165 172 169 161 160 179 194 204 204 199 171 182 176 141 160 152 151 165
284 277 270 271 266 258 255 259 265 271 275 282 316 14 120 126 111 114 118 127 120 131 140 161 188 183 184 189 189 181 173 183 200 199 188 179 177 164 149 152 171 145 139 113
276 280 282 264 260 251 249 250 256 267 278 277 263 269 215 109 106 136 132 147 162 186 141 182 191 189 200 200 207 199 183 183 201 190 173 179 170 152 155 166 180 156 155 142
281 279 257 259 308 303 284 279 276 289 317 322 315 336 44 70 106 92 76 112 142 177 135 81 66 57 90 210 211 201 189 183 186 172 170 172 163 164 168 166 173 163 166 156
265 270 274 269 302 330 297 286 317 305 310 351 7 336 9 45 53 64 70 76 58 27 17 44 27 53 32 224 195 171 165 176 155 158 167 170 167 169 158 150 170 165 172 173
255 262 263 316 25 4 315 280 12 358 348 0 343 294 5 43 31 27 52 62 53 28 2 359 28 57 286 225 197 203 166 162 145 146 162 171 166 166 153 158 175 160 163 165
249 257 264 355 16 341 269 4 17 357 347 351 334 345 2 12 11 13 41 62 59 34 359 343 32 39 293 269 255 296 99 122 143 151 170 162 154 147 143 160 165 166 168 172
243 248 254 40 14 340 352 1 358 352 351 351 357 1 0 359 351 347 30 61 61 11 307 332 21 333 285 289 357 64 72 131 153 155 159 147 142 151 154 163 157 167 170 182
262 244 15 34 359 359 347 337 349 353 349 343 336 338 332 323 312 296 289 321 343 288 274 263 263 282 263 282 75 91 89 351 210 157 146 153 160 166 161 161 161 171 181 191
273 262 268 293 329 341 341 331 340 342 337 334 320 317 312 306 297 285 271 224 198 243 266 280 292 289 249 221 157 165 197 220 218 162 139 156 157 163 160 173 173 179 189 199
273 279 285 277 304 317 316 319 331 338 335 330 322 311 307 298 293 294 284 254 233 246 248 251 264 261 242 237 186 219 227 232 210 172 151 145 154 169 179 181 173 177 189 191
276 307 304 313 347 337 319 315 320 321 319 323 313 305 300 294 294 295 296 285 271 266 260 248 243 248 227 196 188 214 225 236 219 194 159 167 164 136 92 157 149 168 184 193
293 315 311 313 325 333 322 315 311 310 311 315 315 314 315 305 301 299 297 293 280 276 272 259 245 250 239 204 199 218 232 224 199 200 202 204 196 181 179 160 161 185 202 207
299 299 295 304 314 323 318 318 321 319 321 325 322 317 314 307 303 296 288 283 281 273 270 265 255 254 231 210 210 229 232 220 209 207 204 213 217 215 199 188 185 204 219 208
280 281 289 305 310 311 321 326 318 314 318 320 318 313 311 311 305 296 298 305 298 287 277 267 255 261 231 211 214 225 222 212 193 213 209 210 215 222 212 191 183 184 174 184
287 286 285 285 289 288 283 287 289 294 307 310 310 314 313 309 307 308 310 306 288 286 283 275 260 256 243 216 206 210 202 226 237 217 214 205 212 218 207 187 182 184 193 187
271 271 271 272 278 283 280 276 285 289 296 304 317 324 321 317 315 322 323 318 302 295 300 312 312 283 227 213 194 199 192 202 223 223 215 208 216 211 198 185 185 191 201 191
266 277 287 287 286 285 287 291 303 305 304 315 326 326 324 321 320 322 318 314 320 336 345 354 346 334 10 157 176 167 183 196 211 226 223 206 219 208 194 185 191 203 202 188
269 274 290 303 312 310 308 308 308 310 321 328 322 319 320 319 317 314 311 315 328 332 344 357 340 339 347 333 310 173 181 205 213 255 251 223 221 205 193 193 197 202 198 192
264 261 257 264 283 291 300 307 309 309 306 297 297 304 308 313 315 310 311 325 347 344 348 350 339 339 344 332 332 187 175 208 228 242 248 229 229 220 209 204 202 206 208 207
263 270 274 270 271 274 273 279 283 284 285 279 284 294 301 312 319 322 323 333 2 2 349 346 350 340 315 305 266 231 202 218 226 224 236 229 235 236 219 208 212 210 209 215
258 258 265 272 274 272 262 256 265 270 269 275 284 293 301 309 319 325 320 326 4 0 356 346 341 333 330 323 259 246 217 221 225 210 229 246 244 245 239 229 222 218 210 213
256 261 264 265 268 276 278 271 270 268 266 273 282 286 286 288 284 287 297 337 20 348 348 345 341 337 337 350 352 336 333 340 322 323 291 296 301 293 277 277 254 227 212 222
267 269 262 263 262 262 270 285 287 288 290 283 277 291 289 286 299 310 319 346 351 339 345 341 334 332 336 358 1 353 348 336 337 350 17 16 356 332 327 316 311 293 265 262
271 279 280 278 274 272 278 285 299 318 307 290 294 305 302 302 296 312 315 324 345 342 344 310 305 309 325 347 5 3 1 353 348 19 54 58 328 322 325 303 300 307 297 279
257 267 266 266 273 290 296 293 274 259 271 290 299 348 359 13 14 353 337 338 356 325 320 285 275 277 305 346 4 10 11 1 356 354 353 360 2 342 317 309 315 303 295 298
277 276 277 285 286 287 295 289 288 292 294 302 328 2 6 359 356 351 336 339 348 323 322 327 325 326 329 342 355 7 28 26 13 12 17 13 7 1 347 331 317 312 322 321